Skip Page Navigation
NASA JPL Caltech
NASA Logo - Jet Propulsion Laboratory + View the NASA Portal
+ Center for Near-Earth Object Studies
JPL Home Earth Solar System Stars & Galaxies Technology
JPL Solar System Dynamics
BODIES ORBITS EPHEMERIDES TOOLS PHYSICAL DATA DISCOVERY FAQ SITE MAP
IMPORTANT: The SSD Announcement email list is now available. Major changes are coming in the near future, including possible hostname and/or URL changes. To be notified of such changes, subscribe to this email list.

Please visit this page for more details.


JPL Small-Body Database Browser
Search: [ help ]  
109849 (2001 RZ130)
Classification: Main-belt Asteroid          SPK-ID: 2109849
Ephemeris | Orbit Diagram | Orbital Elements | Mission Design | Physical Parameters | Discovery Circumstances | Close-Approach Data ]

[ show orbit diagram ]
Orbital Elements at Epoch 2458600.5 (2019-Apr-27.0) TDB
Reference: JPL 15 (heliocentric ecliptic J2000)
 Element Value Uncertainty (1-sigma)   Units 
e .09237823694806495 5.1461e-08  
a 3.069873756131093 2.5944e-08 au
q 2.786284230886569 1.609e-07 au
i 2.606199046233359 5.512e-06 deg
node 72.18482807639109 0.00012946 deg
peri 267.6593509287874 0.00013307 deg
M 110.9847598901359 3.0087e-05 deg
tp 2457994.824443341406
(2017-Aug-29.32444334)
0.00016379 TDB
period 1964.622896088933
5.38
2.4905e-05
6.819e-08
d
yr
n .1832412727738585 2.3229e-09 deg/d
Q 3.353463281375617 2.8341e-08 au
  Orbit Determination Parameters
   # obs. used (total)      462  
   data-arc span      6329 days (17.33 yr)  
   first obs. used      2001-09-12  
   last obs. used      2019-01-10  
   planetary ephem.      DE431  
   SB-pert. ephem.      SB431-N16  
   condition code      0  
   norm. resid. RMS      .56092  
   source      ORB  
   producer      Otto Matic  
   solution date      2019-Jul-13 12:55:01  

Additional Information
 Earth MOID = 1.77817 au 
 Jupiter MOID = 1.98783 au 
 T_jup = 3.223 
[ show covariance matrix ]

Ephemeris | Orbit Diagram | Orbital Elements | Mission Design | Physical Parameters | Discovery Circumstances | Close-Approach Data ]

Physical Parameter Table
Parameter Symbol Value Units Sigma Reference Notes
absolute magnitude H 15.0   n/a MPO432619  

109849 (2001 RZ130)          Discovered 2001-Sep-12 by LINEAR at Socorro
Reference: 20051019/Numbers.arcLast Updated: 2005-10-26

[ show close-approach data ]
Alternate Designations
 2001 RZ130 = 2004 DZ28 
Ephemeris | Orbit Diagram | Orbital Elements | Mission Design | Physical Parameters | Discovery Circumstances | Close-Approach Data ]
ABOUT SSD CREDITS/AWARDS PRIVACY/COPYRIGHT GLOSSARY LINKS
FirstGov 2019-Dec-11 00:58 UT
(server date/time)  
NASA Home Page
Site Manager:   Ryan S. Park
Webmaster  Alan B. Chamberlin